Lid_Strength_Index
4 5 5 5 5 5 6 5 5 5 4 4 4 3 2 2 1 2 1 0 0 0 0 1 1 1 1 1 0 1 2 2 4 3 1 1 1 2 2 1 1 1 1
5 5 5 5 5 5 5 5 4 4 4 3 3 3 3 2 1 1 1 1 1 1 1 1 1 0 1 0 1 1 1 1 2 4 2 2 2 1 1 1 1 1 1
5 6 5 5 5 5 5 4 4 3 3 3 3 3 2 3 2 1 1 1 1 0 0 1 0 1 1 1 1 1 2 3 3 4 4 3 2 1 2 1 0 0 1
5 5 5 5 5 5 4 4 4 3 3 2 2 2 2 2 1 2 2 1 1 1 1 1 2 2 2 2 2 3 3 4 3 4 4 4 4 3 2 3 3 1 2
6 7 6 4 4 5 5 4 4 3 3 3 3 3 2 2 3 3 2 1 1 2 2 3 3 4 4 4 3 3 3 4 3 4 4 4 4 4 4 3 3 3 2
6 7 5 5 5 5 5 5 3 4 3 4 4 5 4 4 6 5 4 4 3 3 4 4 5 4 4 4 5 4 4 5 4 5 4 5 4 4 4 4 4 5 7
7 7 7 6 5 6 6 6 6 6 5 5 5 5 5 5 6 6 5 5 4 3 2 2 3 3 3 4 3 3 4 4 4 4 5 5 5 5 4 4 4 5 5
6 7 6 6 6 6 6 6 6 5 4 4 5 3 4 4 6 6 5 1 1 1 1 2 2 2 4 6 4 3 3 2 2 3 3 4 4 4 4 4 5 4 3
7 7 6 7 6 6 6 6 4 3 3 3 2 3 3 3 6 7 5 2 1 1 1 2 2 2 5 5 3 2 1 1 2 3 4 5 5 5 5 4 6 5 7
6 6 6 6 5 6 5 4 3 2 3 3 3 2 4 2 8 7 6 2 1 2 -0 1 4 4 5 5 1 1 2 1 1 1 0 1 2 1 3 2 3 6 6
6 5 4 4 4 3 3 3 2 2 2 2 2 2 2 4 4 6 6 2 2 3 3 2 2 5 5 5 4 1 2 1 1 1 1 2 2 2 2 2 2 3 6
5 5 5 3 4 4 3 2 3 2 3 3 3 3 3 2 6 6 6 5 4 2 2 2 2 5 5 5 4 6 5 4 2 3 4 4 3 3 2 2 1 1 2
5 4 4 3 4 4 4 4 5 3 4 4 4 4 4 4 3 5 6 5 4 2 1 3 4 4 4 5 5 5 4 2 3 4 4 4 3 2 2 2 1 1 2
4 4 4 5 5 5 5 6 7 7 6 5 5 5 5 5 5 4 3 2 2 2 1 1 2 3 3 2 2 2 2 2 3 4 4 4 3 3 4 3 4 3 4
5 4 4 5 4 5 7 7 7 8 9 7 7 5 6 6 6 7 7 4 3 3 4 1 2 2 2 2 2 2 2 3 3 3 4 4 4 4 4 3 4 4 5
5 6 6 5 5 5 4 5 11 10 10 10 10 9 5 8 7 7 7 7 7 7 2 2 2 2 3 3 3 3 2 3 3 3 3 3 4 4 4 4 5 4 5
6 5 5 6 5 5 5 5 4 9 10 10 9 9 8 9 8 7 6 6 6 6 2 2 2 2 2 2 3 3 3 3 2 2 3 3 4 5 5 5 5 5 6
5 9 5 5 5 5 5 5 5 5 5 5 8 7 8 8 7 7 6 4 2 2 2 2 2 2 2 3 3 3 3 3 2 2 3 5 5 6 6 6 5 5 6
6 6 5 4 5 6 5 4 5 4 4 4 3 6 5 7 7 7 5 1 2 2 2 2 3 3 3 3 3 3 2 3 2 3 5 6 6 6 7 6 6 7 7
5 8 8 5 5 5 4 4 4 3 3 3 4 3 2 2 2 1 1 1 1 2 2 2 2 2 2 3 3 2 3 3 3 4 6 6 6 7 7 6 6 6 6
4 5 7 5 5 5 4 4 3 3 3 3 3 3 9 3 2 2 1 1 1 1 1 2 2 2 2 2 3 3 3 4 4 5 6 6 6 6 6 6 6 5 6
4 5 5 5 5 5 4 3 3 3 2 3 2 2 8 1 1 1 1 1 1 1 1 1 2 2 2 2 3 3 3 5 5 6 6 6 6 6 6 6 6 6 7
3 4 5 4 4 6 4 3 3 2 2 2 2 2 2 1 1 1 1 1 0 0 0 0 1 2 2 2 2 3 4 6 6 6 7 7 7 7 7 7 7 8 8
3 3 4 4 5 4 3 3 2 4 2 2 2 2 1 1 1 1 1 0 0 0 0 0 1 1 2 2 3 3 3 6 6 6 7 7 7 8 8 7 7 8 8
3 3 3 4 4 4 3 2 2 2 1 1 1 1 1 1 1 1 0 0 0 1 1 0 0 1 2 2 4 4 7 10 8 10 6 6 7 7 7 7 7 8 8
2 3 3 4 4 3 2 2 2 1 1 1 1 1 1 1 1 1 0 0 1 1 1 0 0 1 1 2 4 7 9 10 9 10 6 6 7 7 7 7 7 8 8